When you browse on this site, cookies collect data to enhance your experience and personalize the content and advertising you see.
Visit our Privacy Policy to learn more. By continuing to use the site, you agree to this use of cookies and data.
  • In United Kingdom
  • List of Countries
  • For 7 days
  • Water Temperature
  • Satellite Maps
  • Weather Map
  • Weather Widgets
  • user-avatar
    Login

    Hourly Weather Bulawayo

    Today, 21 May, Tuesday

    Time Temperature Precipitation Wind Pressure Humidity
    00:00 +14°C° 0 mm 2 mps 650 mmHg 48%
    01:00 +13°C° 0 mm 2 mps 650 mmHg 51%
    02:00 +13°C° 0 mm 2 mps 650 mmHg 53%
    03:00 +12°C° 0 mm 2 mps 650 mmHg 54%
    04:00 +12°C° 0 mm 2 mps 650 mmHg 55%
    05:00 +12°C° 0 mm 2 mps 650 mmHg 56%
    06:00 +13°C° 0 mm 2 mps 650 mmHg 52%
    07:00 +15°C° 0 mm 2 mps 651 mmHg 47%
    08:00 +17°C° 0 mm 2 mps 652 mmHg 42%
    09:00 +19°C° 0 mm 2 mps 653 mmHg 34%
    10:00 +23°C° 0 mm 2 mps 653 mmHg 27%
    11:00 +26°C° 0 mm 2 mps 654 mmHg 19%
    12:00 +27°C° 0 mm 2 mps 653 mmHg 17%
    13:00 +27°C° 0 mm 2 mps 653 mmHg 14%
    14:00 +28°C° 0 mm 2 mps 653 mmHg 12%
    15:00 +27°C° 0 mm 2 mps 652 mmHg 13%
    16:00 +26°C° 0 mm 2 mps 652 mmHg 13%
    17:00 +25°C° 0 mm 2 mps 651 mmHg 14%
    18:00 +23°C° 0 mm 2 mps 651 mmHg 17%
    19:00 +19°C° 0 mm 3 mps 651 mmHg 20%
    20:00 +17°C° 0 mm 3 mps 650 mmHg 23%
    21:00 +17°C° 0 mm 3 mps 651 mmHg 26%
    22:00 +16°C° 0 mm 3 mps 651 mmHg 30%
    23:00 +14°C° 0 mm 3 mps 651 mmHg 33%

    Tomorrow, 22 May, Wednesday

    Time Temperature Precipitation Wind Pressure Humidity
    00:00 +14°C° 0 mm 4 mps 651 mmHg 36%
    01:00 +14°C° 0 mm 4 mps 651 mmHg 38%
    02:00 +13°C° 0 mm 4 mps 651 mmHg 41%
    03:00 +13°C° 0 mm 3 mps 651 mmHg 42%
    04:00 +13°C° 0 mm 3 mps 651 mmHg 43%
    05:00 +12°C° 0 mm 3 mps 651 mmHg 44%
    06:00 +13°C° 0 mm 4 mps 652 mmHg 42%
    07:00 +14°C° 0 mm 4 mps 652 mmHg 41%
    08:00 +15°C° 0 mm 4 mps 653 mmHg 39%
    09:00 +19°C° 0 mm 4 mps 654 mmHg 34%
    10:00 +21°C° 0 mm 4 mps 654 mmHg 28%
    11:00 +25°C° 0 mm 4 mps 655 mmHg 23%
    12:00 +26°C° 0 mm 4 mps 655 mmHg 21%
    13:00 +27°C° 0 mm 4 mps 654 mmHg 18%
    14:00 +27°C° 0 mm 3 mps 654 mmHg 16%
    15:00 +26°C° 0 mm 3 mps 653 mmHg 18%
    16:00 +25°C° 0 mm 4 mps 653 mmHg 21%
    17:00 +23°C° 0 mm 4 mps 652 mmHg 24%
    18:00 +21°C° 0 mm 4 mps 652 mmHg 34%
    19:00 +19°C° 0 mm 4 mps 652 mmHg 43%
    20:00 +17°C° 0 mm 4 mps 652 mmHg 53%
    21:00 +15°C° 0 mm 4 mps 652 mmHg 60%
    22:00 +14°C° 0 mm 4 mps 652 mmHg 68%
    23:00 +13°C° 0 mm 4 mps 652 mmHg 75%

    Day after tomorrow, 23 May, Thursday

    Time Temperature Precipitation Wind Pressure Humidity
    00:00 +13°C° 0 mm 3 mps 652 mmHg 78%
    01:00 +12°C° 0 mm 3 mps 651 mmHg 81%
    02:00 +12°C° 0 mm 3 mps 651 mmHg 84%
    03:00 +11°C° 0 mm 3 mps 651 mmHg 87%
    04:00 +11°C° 0 mm 3 mps 651 mmHg 90%
    05:00 +11°C° 0 mm 3 mps 651 mmHg 93%
    06:00 +12°C° 0 mm 3 mps 652 mmHg 88%
    07:00 +13°C° 0 mm 3 mps 652 mmHg 82%
    08:00 +14°C° 0 mm 3 mps 653 mmHg 76%
    09:00 +18°C° 0 mm 3 mps 653 mmHg 60%
    10:00 +21°C° 0 mm 4 mps 654 mmHg 44%
    11:00 +25°C° 0 mm 4 mps 655 mmHg 28%
    12:00 +26°C° 0 mm 4 mps 654 mmHg 25%
    13:00 +26°C° 0 mm 4 mps 654 mmHg 23%
    14:00 +27°C° 0 mm 4 mps 653 mmHg 20%
    15:00 +26°C° 0 mm 4 mps 653 mmHg 23%
    16:00 +25°C° 0 mm 4 mps 652 mmHg 27%
    17:00 +23°C° 0 mm 4 mps 652 mmHg 30%
    18:00 +22°C° 0 mm 4 mps 652 mmHg 37%
    19:00 +20°C° 0 mm 4 mps 652 mmHg 45%
    20:00 +18°C° 0 mm 4 mps 652 mmHg 52%
    21:00 +17°C° 0 mm 4 mps 652 mmHg 58%
    22:00 +17°C° 0 mm 4 mps 652 mmHg 63%
    23:00 +15°C° 0 mm 4 mps 652 mmHg 68%

    24 May, Friday

    Time Temperature Precipitation Wind Pressure Humidity
    00:00 +14°C° 0 mm 4 mps 652 mmHg 70%
    01:00 +14°C° 0 mm 4 mps 652 mmHg 73%
    02:00 +14°C° 0 mm 4 mps 652 mmHg 75%
    03:00 +13°C° 0 mm 3 mps 652 mmHg 78%
    04:00 +13°C° 0 mm 3 mps 652 mmHg 81%
    05:00 +12°C° 0 mm 3 mps 652 mmHg 84%
    06:00 +13°C° 0 mm 4 mps 652 mmHg 80%
    07:00 +14°C° 0 mm 5 mps 653 mmHg 76%
    08:00 +15°C° 0 mm 5 mps 654 mmHg 71%
    09:00 +17°C° 0 mm 5 mps 654 mmHg 61%
    10:00 +20°C° 0 mm 5 mps 655 mmHg 51%
    11:00 +22°C° 0 mm 5 mps 655 mmHg 41%
    12:00 +23°C° 0 mm 5 mps 655 mmHg 37%
    13:00 +25°C° 0 mm 5 mps 654 mmHg 33%
    14:00 +26°C° 0 mm 5 mps 653 mmHg 29%
    15:00 +25°C° 0 mm 5 mps 653 mmHg 31%
    16:00 +23°C° 0 mm 5 mps 653 mmHg 33%
    17:00 +22°C° 0 mm 5 mps 653 mmHg 35%
    18:00 +20°C° 0 mm 5 mps 653 mmHg 44%
    19:00 +19°C° 0 mm 5 mps 653 mmHg 54%
    20:00 +16°C° 0 mm 5 mps 653 mmHg 64%
    21:00 +15°C° 0 mm 5 mps 653 mmHg 70%
    22:00 +14°C° 0 mm 5 mps 653 mmHg 76%
    23:00 +13°C° 0 mm 5 mps 653 mmHg 82%

    25 May, Saturday

    Time Temperature Precipitation Wind Pressure Humidity
    00:00 +13°C° 0 mm 5 mps 653 mmHg 85%
    01:00 +12°C° 0 mm 5 mps 653 mmHg 87%
    02:00 +12°C° 0 mm 4 mps 652 mmHg 90%
    03:00 +12°C° 0 mm 4 mps 652 mmHg 91%
    04:00 +11°C° 0 mm 4 mps 652 mmHg 92%
    05:00 +11°C° 0 mm 4 mps 652 mmHg 93%
    06:00 +12°C° 0 mm 4 mps 653 mmHg 89%
    07:00 +12°C° 0 mm 4 mps 653 mmHg 84%
    08:00 +13°C° 0 mm 4 mps 654 mmHg 80%
    09:00 +15°C° 0 mm 4 mps 654 mmHg 70%
    10:00 +19°C° 0 mm 4 mps 655 mmHg 59%
    11:00 +21°C° 0 mm 4 mps 655 mmHg 49%
    12:00 +22°C° 0 mm 4 mps 655 mmHg 44%
    13:00 +23°C° 0 mm 4 mps 654 mmHg 38%
    14:00 +24°C° 0 mm 3 mps 654 mmHg 33%
    15:00 +23°C° 0 mm 4 mps 653 mmHg 35%
    16:00 +22°C° 0 mm 4 mps 653 mmHg 37%
    17:00 +21°C° 0 mm 4 mps 653 mmHg 38%
    18:00 +19°C° 0 mm 4 mps 653 mmHg 46%
    19:00 +17°C° 0 mm 4 mps 653 mmHg 54%
    20:00 +16°C° 0 mm 3 mps 653 mmHg 62%
    21:00 +14°C° 0 mm 3 mps 653 mmHg 65%
    22:00 +13°C° 0 mm 3 mps 653 mmHg 68%
    23:00 +12°C° 0 mm 3 mps 652 mmHg 71%

    26 May, Sunday

    Time Temperature Precipitation Wind Pressure Humidity
    00:00 +12°C° 0 mm 3 mps 652 mmHg 72%
    01:00 +11°C° 0 mm 3 mps 652 mmHg 72%
    02:00 +11°C° 0 mm 3 mps 652 mmHg 73%
    03:00 +10°C° 0 mm 3 mps 652 mmHg 74%
    04:00 +10°C° 0 mm 3 mps 651 mmHg 76%
    05:00 +9°C° 0 mm 3 mps 651 mmHg 77%
    06:00 +10°C° 0 mm 3 mps 652 mmHg 68%
    07:00 +12°C° 0 mm 3 mps 653 mmHg 60%
    08:00 +13°C° 0 mm 4 mps 653 mmHg 51%
    09:00 +15°C° 0 mm 4 mps 654 mmHg 40%
    10:00 +19°C° 0 mm 4 mps 654 mmHg 30%
    11:00 +22°C° 0 mm 5 mps 655 mmHg 20%
    12:00 +23°C° 0 mm 4 mps 654 mmHg 19%
    13:00 +25°C° 0 mm 4 mps 654 mmHg 18%
    14:00 +25°C° 0 mm 4 mps 653 mmHg 16%
    15:00 +23°C° 0 mm 4 mps 653 mmHg 18%
    16:00 +22°C° 0 mm 3 mps 653 mmHg 20%
    17:00 +21°C° 0 mm 3 mps 652 mmHg 23%
    18:00 +19°C° 0 mm 3 mps 652 mmHg 28%
    19:00 +17°C° 0 mm 4 mps 652 mmHg 34%
    20:00 +14°C° 0 mm 4 mps 652 mmHg 40%
    21:00 +14°C° 0 mm 4 mps 652 mmHg 45%
    22:00 +13°C° 0 mm 3 mps 652 mmHg 50%
    23:00 +12°C° 0 mm 3 mps 652 mmHg 56%
    Show more